www.pogodaiklimat.ru

Погода и климат >> Архив погоды >> Россия >> Коми >> Мутный Материк


ПОГОДА в Мутном Материке

  • Прогноз погоды в Мутном Материке
  • Монитор погоды в Мутном Материке

АРХИВ ПОГОДЫ в Мутном Материке

Время (UTC), дата Ветер
(напр.,м/с)
 
Видим.   Явления Облачность Т
(С)
Тd
(С)
f
(%)
Тe
(С)
Тes
(С)
Комфортность P
(гПа)
Po
(гПа)
Тmin
(С)
Tmax
(С)
R
(мм)
R24
(мм)
S
(см)
21 15.04 С 5 50 км 1/0
[Ci fib]
-12.1 -15.7 75 -20 -20 1016.9 1007.5
00 16.04 С 5 50 км 10/10 570 м
[Sc]
-13.6 -16.3 80 -22 -22 1020.0 1010.5
03 16.04 С 6-11
{15}
50 км позёмок 4/4 600 м
[Sc]
-13.8 -17.8 72 -23 -23 1023.6 1014.1 -14.2 73
06 16.04 С 7-14
{14}
20 км слаб. снег {метель} 9/5 600 м
[Sc Ac As Ci]
-11.6 -17.4 62 -21 -20 1027.2 1017.8
09 16.04 С 7-12
{16}
50 км позёмок 1/1 600 м
[Cu hum]
-11.1 -18.1 56 -20 -19 1030.8 1021.3
12 16.04 С 7-11
{13}
50 км позёмок 1/1 600 м
[Cu hum]
-10.2 -17.1 57 -19 -18 1033.4 1023.9
15 16.04 С 5-10
{11}
50 км {метель} ясно -11.2 -16.9 63 -19 -19 1035.2 1025.7 -10.1 0.0
18 16.04 СЗ 3 50 км {метель} ясно -14.6 -17.6 78 -21 -21 1035.8 1026.1
21 16.04 СЗ 4 50 км 1/0
[Ci fib]
-16.3 -18.0 87 -24 -24 1035.8 1026.1
00 17.04 СЗ 3 50 км 3/0
[Cs]
-17.8 -19.7 85 -25 -25 1035.4 1025.6
03 17.04 Ю 2 50 км 8/0
[Cs]
-18.8 -21.1 82 -24 -23 1034.5 1024.7 -18.8 73
06 17.04 Ю 5 50 км 8/0
[Cc]
-9.6 -13.9 71 -17 -15 1032.1 1022.6 -18.9
09 17.04 З 5 50 км 4/0
[Cc]
-2.4 -15.4 36 -8 -5 1028.9 1019.7
12 17.04 З 5
{11}
50 км 10/0
[As trans]
-1.6 -7.9 62 -8 -7 1026.3 1017.2
15 17.04 З 4
{11}
50 км {снег, метель} 10/0
[Ac As]
-1.0 -5.2 73 -6 -6 1023.9 1014.9 -0.7 0.3
18 17.04 З 5 20 км слаб. снег {метель} 10/0 540 м
[As op]
-0.8 -3.2 84 -7 -7 1022.2 1013.1
21 17.04 З 5 20 км слаб. снег 10/10 400 м
[Frnb Ns]
-0.9 -2.2 91 -7 -7 1020.6 1011.6
00 18.04 З 5 50 км {снег} 10/10 400 м
[St]
-0.6 -2.5 87 -7 -7 1019.0 1010.0
03 18.04 З 5 10 км слаб. снег 10/9 450 м
[Frnb As op]
-0.6 -2.6 86 -7 -7 1017.8 1008.8 -1.2 0.2 73
06 18.04 З 5
{10}
50 км {снег} 10/9 400 м
[Frnb As op]
+0.8 -1.6 84 -5 -5 1017.7 1008.7
09 18.04 СЗ 6 50 км 10/9 360 м
[Frnb As op]
+2.0 -0.5 83 -4 -4 1019.4 1010.5
12 18.04 СЗ 4
{10}
50 км {снег} 9/3 600 м
[Sc As op]
+2.1 -2.7 71 -3 -2 1021.1 1012.1
15 18.04 З 4 50 км 10/0
[Ac As]
+1.7 -3.4 69 -3 -3 1021.0 1012.0 +2.5 0.0
18 18.04 З 4 50 км 10/10 870 м
[Sc]
+1.1 -3.2 73 -4 -4 1020.2 1011.2
21 18.04 З 4 10 км слаб. снег 10/9 240 м
[Frnb As op]
-0.1 -1.2 92 -6 -6 1019.1 1010.1
00 19.04 З 3 50 км {снег} 10/10 900 м
[Sc]
+0.3 -0.8 92 -4 -4 1018.5 1009.5
03 19.04 СЗ 3
{10}
50 км {ливн. осадки} 10/10 720 м
[Sc]
-0.0 -2.9 81 -5 -5 1019.0 1010.0 -0.4 0.3 72
06 19.04 СЗ 6 50 км {ливн. осадки} 9/9 900 м
[Sc]
+1.4 -2.9 73 -5 -4 1019.5 1010.5
09 19.04 СЗ 4 50 км 10/10 720 м
[Sc]
+2.4 -2.4 71 -2 -2 1020.1 1011.1
12 19.04 СЗ 5 50 км 10/10 720 м
[Sc]
+2.7 -1.5 74 -2 -2 1020.6 1011.7
15 19.04 СЗ 3 50 км в посл. час дождь 10/10 330 м
[Frnb]
+1.5 -0.5 87 -3 -3 1021.2 1012.2 +3.0 0.0
18 19.04 СЗ 4 50 км {дождь} 10/9 300 м
[Frnb As op]
+0.8 -0.1 94 -5 -5 1021.4 1012.4
21 19.04 СЗ 3 20 км слаб. снег 10/9 330 м
[Frnb As op]
+0.6 -0.3 94 -4 -4 1021.8 1012.8
00 20.04 СЗ 3 50 км {снег} 10/10 300 м
[Frnb]
+0.5 -0.4 94 -4 -4 1021.9 1012.9
03 20.04 СЗ 3 50 км 10/9 300 м
[Frnb As op]
+0.7 -0.7 90 -4 -4 1022.0 1013.0 +0.5 0.0 71
06 20.04 З 3 50 км 10/10 480 м
[Sc]
+1.7 -0.8 83 -3 -3 1022.5 1013.5
09 20.04 З 4 50 км 10/10 1230 м
[Sc]
+2.9 -2.6 67 -2 -2 1022.4 1013.5
12 20.04 З 4 50 км 10/10 1080 м
[Sc]
+3.0 -3.5 62 -1 -1 1022.1 1013.2
15 20.04 З 4 50 км 10/10 1350 м
[Sc]
+2.8 -3.4 64 -2 -2 1020.8 1011.9 +3.3
18 20.04 З 4 20 км слаб. ливневой снег 10/10 300 м
[Cb cap]
+1.6 -2.4 75 -3 -3 1019.2 1010.2
21 20.04 ЮЗ 5
{10}
20 км слаб. снег 10/0 800 м
[As op]
+1.2 -3.0 74 -4 -4 1016.2 1007.3
00 21.04 З 6-10
{11}
50 км {снег} 10/10 630 м
[Sc]
+1.4 -2.0 78 -5 -5 1013.7 1004.8
03 21.04 З 5
{12}
20 км слаб. дождь 10/9 360 м
[Frnb As op]
+1.6 +0.3 91 -4 -4 1013.2 1004.4 +0.4 0.3 67
06 21.04 З 3
{10}
20 км слаб. дождь 10/9 360 м
[Frnb As op]
+2.6 +0.6 87 -2 -1 1014.0 1005.1
09 21.04 З 4 10 км в посл. час дождь 10/0 540 м
[As op]
+3.3 +0.8 84 -1 -0 1014.8 1005.9
12 21.04 ЮЗ 3 50 км {дождь} 10/9 360 м
[Frnb As op]
+3.1 +1.0 86 -1 -1 1015.1 1006.2
15 21.04 ЮЗ 4 50 км 10/0
[Ac As]
+3.0 +0.4 83 -2 -2 1013.8 1005.0 +3.6 0.0
18 21.04 ЮЗ 4 50 км 10/10 1380 м
[Sc]
+3.1 -0.5 77 -1 -1 1012.8 1003.9
21 21.04 ЮЗ 5 50 км 10/0
[Ac As]
+4.3 +0.4 76 -0 -0 1011.1 1002.3
00 22.04 ЮЗ 4 50 км 10/0
[Ac As]
+3.9 -1.0 70 -0 -0 1010.0 1001.2
03 22.04 ЮЗ 4 20 км слаб. дождь 10/0 750 м
[As op]
+2.8 -0.3 80 -2 -2 1008.4 999.6 +2.5 0.4 59
06 22.04 ЮЗ 5
{10}
20 км слаб. дождь 10/10 420 м
[Frnb Ns]
+3.0 +1.1 87 -2 -2 1007.0 998.3 +2.7
09 22.04 З 6
{10}
20 км слаб. дождь 10/10 450 м
[Frnb Ns]
+3.1 +1.1 87 -3 -3 1006.6 997.8
12 22.04 З 6-10
{11}
50 км {дождь} 10/0 570 м
[As op]
+4.1 +1.0 80 -1 -1 1007.3 998.5
15 22.04 З 5
{11}
50 км 9/4 1000 м
[Sc Ac trans Ci fib]
+4.2 0.0 74 -1 -0 1007.7 998.9 +4.5 1

 

Местоположение метеостанции Мутный Материк (Коми, Россия): широта 65.95 долгота 55.17 высота над уровнем моря 71 м.

В архиве по умолчанию представлена погода в Мутном Материке за последнюю неделю. Архивные данные за месяц целиком и за предыдущие месяцы, начиная с января 2011 года, Вы можете получить, выбрав интересующий диапазон дат из раскрывающегося списка и нажав кнопку "Ввод!".


*Определитесь, кто Вы:
робот инопланетянин человек

Внимание! Время в таблицах - всемирное. Для получения местного времени необходимо прибавить поправку, которая равна 3 ч.

Смотрите также архив погоды в соседних городах и на ближайших метеорологических станциях:

Погода в Усть-Усе (Коми, Россия) (79 км)
Погода в Усинске (Коми, Россия) (100 км)
Погода в Ижме (Коми, Россия) (120 км)
Погода в Окуневом Носу (Коми, Россия) (121 км)
Погода в Печоре (Коми, Россия) (128 км)
Погода в Усть-Цильме (Коми, Россия) (145 км)
Погода в Ираеле (Коми, Россия) (159 км)
Погода в Кедва-Воме (Коми, Россия) (206 км)
Погода в Хорей-Вере (Ненецкий АО, Россия) (207 км)
Погода в Нарьян-Маре (Ненецкий АО, Россия) (209 км)

Пояснения к столбцам:

Ветер - указаны скорость ветра в м/с - средняя за 10 мин, порывы в срок и между сроками (в фигурных скобках) и направление, откуда дует ветер: С - северный, СВ - северо-восточный, В - восточный, ЮВ - юго-восточный, Ю - южный, ЮЗ - юго-западный, З - западный, СЗ - северо-западный.
Видимость - горизонтальная дальность видимости в метрах или километрах. При видимости от 1 до 10 км при отсутствии осадков обычно наблюдается дымка, при ухудшении видимости до 1 км и менее - туман. В сухую погоду видимость может ухудшаться дымом, пылью или мглою.
Явления - указаны атмосферные явления, наблюдавшиеся в срок или в последний час перед сроком; фигурными скобками обозначены явления, наблюдавшиеся между сроками (за 1-3 часа до срока); квадратными скобками обозначены град или гололедные отложения с указанием их диаметра в мм.
Облачность - указаны через наклонную черту общая и нижняя облачность в баллах и высота нижней границы облаков в метрах; квадратными скобками обозначены формы облаков: Ci - перистые, Cs - перисто-слоистые, Cc - перисто-кучевые, Ac - высококучевые, As - высокослоистые, Sc - слоисто-кучевые, Ns - слоисто-дождевые, Cu - кучевые, Cb - кучево-дождевые. Подробнее классификацию облаков см. в Атласе облаков (PDF).
T - Температура воздуха - температура, измеренная на высоте 2 м над землей.
Td - Температура точки росы - температура, при понижении до которой содержащийся в воздухе водяной пар достигнет насыщения.
f - Относительная влажность воздуха - влажноcть воздуха, измеренная на высоте 2 м над землей.
Te - Эффективная температура - температура, которую ощущает одетый по сезону человек в тени. Характеристика душности погоды. При расчете учитывается влияние влажности воздуха и скорости ветра на теплоощущения человека.
Tes - Эффективная температура на солнце - температура, которую ощущает человек, с поправкой на солнечный нагрев. Характеристика знойности погоды. Зависит от высоты солнца над горизонтом, облачности и скорости ветра. Ночью, в пасмурную погоду, а также при ветре 12 м/с и более поправка равна нулю.
P - Атмосферное давление - приведенное к уровню моря атмосферное давление.
Po - Атмосферное давление - измеренное на уровне метеостанции атмосферное давление.
Tmin - Минимальная температура - минимум температуры воздуха на высоте 2 м над землей.
Tmax - Максимальная температура - максимум температуры воздуха на высоте 2 м над землей.
R - Количество осадков - Количество выпавших осадков за период времени, мм. При наведении курсора мыши на число - период времени, за который выпало указанное количество осадков.
R24 - Количество осадков - Количество выпавших осадков за 24 часа, мм.
S - Снежный покров - Высота снежного покрова, см. При наведении курсора мыши на число - состояние снежного покрова и степень покрытия местности в баллах.